DW7995 Weather Reports


Display with metric or nautical units.
time (UTC)temp
F
wind
direction
speed
MPH
gust
MPH
rain 1hr
in
rain 24hr
in
rain mn
in
humidity
%
barometer
mb
20260902115039 66 0 0.0 0.0 0.00 0.18 0.00 74 1021.2
20260902114558 66 0 0.0 0.0 0.00 0.18 0.00 72 1021.2
20260902114044 67 0 0.0 0.0 0.00 0.18 0.00 71 1021.2
20260902113540 67 0 0.0 0.0 0.00 0.18 0.00 70 1021.2
20260902113054 68 0 0.0 0.0 0.00 0.18 0.00 68 1021.2
20260902112540 68 0 0.0 0.0 0.00 0.18 0.00 68 1021.2
20260902112040 69 0 0.0 0.0 0.00 0.18 0.00 67 1021.2
20260902111604 69 0 0.0 0.0 0.00 0.18 0.00 66 1021.2
20260902111040 69 0 0.0 0.0 0.00 0.18 0.00 65 1021.2
20260902110540 69 0 0.0 0.0 0.00 0.18 0.00 66 1021.2
20260902110055 69 0 0.0 0.0 0.00 0.18 0.00 65 1021.2
20260902105541 70 0 0.0 0.0 0.00 0.18 0.00 65 1021.2
20260902105042 70 0 0.0 0.0 0.00 0.18 0.00 64 1021.2
20260902104555 70 0 0.0 0.0 0.00 0.18 0.00 65 1021.2
20260902104040 70 0 0.0 0.0 0.00 0.18 0.00 64 1021.2
20260902103540 70 0 0.0 0.0 0.00 0.18 0.00 65 1021.2
20260902103053 70 0 0.0 5.0 0.00 0.18 0.00 64 1021.2
20260902102540 69 0 0.0 5.0 0.00 0.18 0.00 65 1021.2
20260902102041 69 0 0.0 3.0 0.00 0.18 0.00 66 1021.2
20260902101556 69 0 0.0 4.0 0.00 0.18 0.00 66 1021.2
20260902101040 69 0 0.0 4.0 0.00 0.18 0.00 68 1021.2
20260902100540 68 0 0.0 3.0 0.00 0.18 0.00 70 1021.2
20260902100106 68 0 0.0 0.0 0.00 0.18 0.00 71 1021.2
20260902095540 68 0 0.0 0.0 0.00 0.18 0.00 71 1021.2
20260902095041 68 0 0.0 1.0 0.00 0.18 0.00 69 1021.2
20260902094552 69 0 0.0 1.0 0.00 0.18 0.00 68 1021.2
20260902094040 69 0 0.0 0.0 0.00 0.18 0.00 67 1021.2
20260902093539 70 0 0.0 0.0 0.00 0.18 0.00 67 1021.2
20260902093058 70 0 0.0 3.0 0.00 0.18 0.00 66 1021.2
20260902092542 70 0 0.0 3.0 0.00 0.18 0.00 66 1021.2
20260902092039 70 0 0.0 2.0 0.00 0.18 0.00 66 1021.2
20260902091558 70 0 0.0 1.0 0.00 0.18 0.00 66 1021.2
20260902091040 70 0 0.0 1.0 0.00 0.18 0.00 66 1021.2
20260902090539 70 0 0.0 3.0 0.00 0.18 0.00 66 1021.2
20260902090059 70 0 0.0 3.0 0.00 0.18 0.00 65 1021.2
20260902085540 71 347 0.0 3.0 0.00 0.18 0.00 65 1021.2
20260902085040 71 0 0.0 6.0 0.00 0.18 0.00 64 1021.2
20260902084550 71 0 0.0 6.0 0.00 0.18 0.00 63 1021.2
20260902084042 71 0 1.0 6.0 0.00 0.18 0.00 62 1021.2
20260902083539 71 0 0.0 7.0 0.00 0.18 0.00 63 1021.2
20260902083117 71 0 1.0 9.0 0.00 0.18 0.00 63 1021.2
20260902082540 72 0 0.0 12.0 0.00 0.18 0.00 62 1021.2
20260902082039 72 51 3.0 12.0 0.00 0.18 0.00 62 1021.2
20260902081553 71 288 1.0 10.0 0.00 0.18 0.00 63 1021.2
20260902081039 71 0 1.0 16.0 0.00 0.18 0.00 63 1021.2
20260902080539 71 165 2.0 16.0 0.00 0.18 0.00 62 1021.2
20260902080055 71 257 5.0 16.0 0.00 0.18 0.00 62 1021.2
20260902075539 71 225 3.0 10.0 0.00 0.18 0.00 63 1021.2
20260902075041 71 9 3.0 9.0 0.00 0.18 0.00 63 1021.2
20260902074609 71 0 0.0 7.0 0.00 0.18 0.00 63 1021.2
20260902074041 71 58 0.0 5.0 0.00 0.18 0.00 63 1021.2
20260902073539 71 0 0.0 8.0 0.00 0.18 0.00 62 1021.2
20260902073053 71 0 0.0 8.0 0.00 0.18 0.00 62 1021.2
20260902072540 71 0 3.0 8.0 0.00 0.18 0.00 62 1021.2
20260902072039 71 114 1.0 8.0 0.00 0.18 0.00 62 1021.2
20260902071556 71 82 2.0 7.0 0.00 0.18 0.00 62 1021.2
20260902071043 71 214 0.0 6.0 0.00 0.18 0.00 62 1021.2
20260902070541 71 0 0.0 4.0 0.00 0.18 0.00 62 1021.2
20260902070059 71 0 0.0 7.0 0.00 0.18 0.00 62 1021.2
20260902065540 71 0 1.0 7.0 0.00 0.18 0.00 62 1021.2
20260902065040 71 27 1.0 7.0 0.00 0.18 0.00 63 1021.2
20260902064603 71 297 1.0 6.0 0.00 0.18 0.00 62 1021.2
20260902064040 71 0 0.0 9.0 0.00 0.18 0.00 61 1021.2
20260902063539 72 327 1.0 9.0 0.00 0.18 0.00 61 1021.2
20260902063059 72 34 1.0 12.0 0.00 0.18 0.00 61 1021.2
20260902062539 72 0 2.0 12.0 0.00 0.18 0.00 61 1021.2
20260902062040 71 0 0.0 4.0 0.00 0.18 0.00 62 1021.2
20260902061558 71 0 0.0 2.0 0.00 0.18 0.00 62 1021.2
20260902061040 70 0 0.0 4.0 0.00 0.18 0.00 62 1021.2
20260902060539 69 0 0.0 4.0 0.00 0.18 0.00 62 1021.2
20260902060109 68 328 0.0 4.0 0.00 0.18 0.00 65 1021.2
20260902055542 68 0 0.0 2.0 0.00 0.18 0.00 64 1021.2
20260902055038 69 0 0.0 2.0 0.00 0.18 0.00 62 1021.2
20260902054557 69 314 0.0 2.0 0.00 0.18 0.00 62 1021.2
20260902054039 70 0 0.0 2.0 0.00 0.18 0.00 62 1021.2
20260902053539 70 0 0.0 7.0 0.00 0.18 0.00 60 1021.2
20260902053051 71 0 0.0 7.0 0.00 0.18 0.00 59 1021.2
20260902052541 72 0 0.0 6.0 0.00 0.18 0.00 57 1021.2
20260902052039 72 0 0.0 6.0 0.00 0.18 0.00 56 1021.2
20260902051548 72 0 1.0 12.0 0.00 0.18 0.00 57 1021.2
20260902051039 71 329 3.0 12.0 0.00 0.18 0.00 58 1021.2
20260902050541 68 0 0.0 11.0 0.00 0.18 0.00 62 1021.2
20260902050105 63 62 0.0 3.0 0.00 0.18 0.00 71 1021.2
20260902045539 63 0 0.0 0.0 0.00 0.18 0.18 70 1021.2
20260902045039 63 0 0.0 0.0 0.00 0.18 0.18 70 1021.2
20260902044555 64 0 0.0 2.0 0.00 0.18 0.18 68 1021.2
20260902044040 64 0 0.0 2.0 0.00 0.18 0.18 68 1021.2
20260902043538 65 0 0.0 2.0 0.00 0.18 0.18 68 1021.2
20260902043052 65 0 0.0 2.0 0.00 0.18 0.18 66 1021.2
20260902042541 66 0 0.0 0.0 0.00 0.18 0.18 65 1021.2
20260902042041 65 0 0.0 0.0 0.00 0.18 0.18 68 1021.2
20260902041558 65 0 0.0 0.0 0.00 0.18 0.18 67 1021.2
20260902041040 66 0 0.0 0.0 0.00 0.18 0.18 67 1021.2
20260902040539 66 0 0.0 3.0 0.00 0.18 0.18 63 1021.2
20260902040057 66 0 0.0 3.0 0.00 0.18 0.18 67 1021.2
20260902035539 66 0 0.0 3.0 0.00 0.18 0.18 66 1021.2
20260902035040 67 0 0.0 2.0 0.00 0.18 0.18 63 1021.2
20260902034554 68 0 0.0 2.0 0.00 0.18 0.18 62 1021.2
20260902034040 68 176 0.0 0.0 0.00 0.18 0.18 62 1021.2
20260902033539 68 0 0.0 0.0 0.00 0.18 0.18 62 1021.2
20260902033055 68 0 0.0 0.0 0.00 0.18 0.18 62 1021.2
20260902032540 67 0 0.0 0.0 0.00 0.18 0.18 65 1021.2
20260902032039 68 0 0.0 0.0 0.00 0.18 0.18 64 1021.2
20260902031612 69 0 0.0 0.0 0.00 0.18 0.18 64 1021.2
20260902031039 70 0 0.0 0.0 0.00 0.18 0.18 61 1021.2
20260902030540 71 0 0.0 0.0 0.00 0.18 0.18 57 1021.2
20260902030055 72 0 0.0 0.0 0.00 0.18 0.18 55 1021.2
20260902025540 73 0 0.0 4.0 0.00 0.18 0.18 53 1021.2
20260902025042 73 0 0.0 4.0 0.00 0.18 0.18 52 1021.2
20260902024556 73 0 0.0 4.0 0.00 0.18 0.18 53 1021.2
20260902024040 73 0 0.0 3.0 0.00 0.18 0.18 53 1021.2
20260902023540 73 0 0.0 3.0 0.00 0.18 0.18 54 1021.2
20260902023056 73 324 0.0 3.0 0.00 0.18 0.18 53 1021.2
20260902022540 73 0 0.0 3.0 0.00 0.18 0.18 53 1021.2
20260902022039 73 0 0.0 3.0 0.00 0.18 0.18 53 1021.2
20260902021606 74 0 0.0 6.0 0.00 0.18 0.18 52 1021.2
20260902021041 74 0 0.0 6.0 0.00 0.18 0.18 51 1021.2
20260902020540 74 278 1.0 13.0 0.00 0.18 0.18 51 1021.2
20260902020109 74 0 2.0 13.0 0.00 0.18 0.18 51 1021.2
20260902015541 74 243 2.0 11.0 0.00 0.18 0.18 52 1021.2
20260902015040 74 259 1.0 9.0 0.00 0.18 0.18 52 1021.2
20260902014555 73 188 1.0 8.0 0.00 0.18 0.18 53 1021.2
20260902014040 74 87 0.0 8.0 0.00 0.18 0.18 55 1021.2
20260902013539 75 0 0.0 8.0 0.00 0.18 0.18 53 1021.2
20260902013054 75 0 0.0 6.0 0.00 0.18 0.18 51 1021.2
20260902012540 75 0 3.0 6.0 0.00 0.18 0.18 50 1021.2
20260902012039 75 0 0.0 0.0 0.00 0.18 0.18 52 1021.2
20260902011555 75 0 0.0 0.0 0.00 0.18 0.18 55 1021.2
20260902011039 76 0 0.0 0.0 0.00 0.18 0.18 53 1021.2
20260902010541 76 0 0.0 3.0 0.00 0.18 0.18 51 1021.2
20260902010056 76 0 0.0 5.0 0.00 0.18 0.18 48 1021.2
20260902005539 76 0 0.0 5.0 0.00 0.18 0.18 49 1021.2
20260902005039 77 103 1.0 5.0 0.00 0.18 0.18 50 1021.2
20260902004559 77 0 0.0 5.0 0.00 0.18 0.18 49 1021.2
20260902004039 77 0 1.0 5.0 0.00 0.18 0.18 50 1021.2
20260902003539 77 0 1.0 4.0 0.00 0.18 0.18 51 1021.2
20260902003055 78 101 2.0 5.0 0.00 0.18 0.18 52 1021.2
20260902002538 77 0 0.0 5.0 0.00 0.18 0.18 55 1021.2
20260902002038 77 75 0.0 0.0 0.00 0.18 0.18 56 1021.2
20260902001558 76 0 0.0 0.0 0.00 0.18 0.18 54 1021.2
20260902001038 76 0 0.0 0.0 0.00 0.18 0.18 62 1021.2
20260902000541 75 0 0.0 0.0 0.00 0.18 0.18 64 1021.2
20260901235540 73 0 0.0 1.0 0.00 0.18 0.18 71 1021.2
20260901235039 72 0 0.0 1.0 0.00 0.18 0.18 73 1021.2
20260901234557 71 0 0.0 0.0 0.00 0.18 0.18 73 1021.2
20260901234041 71 0 0.0 0.0 0.01 0.18 0.18 76 1021.2
20260901233539 71 0 0.0 0.0 0.01 0.18 0.18 74 1021.2
20260901233101 71 0 0.0 0.0 0.01 0.18 0.18 75 1021.2
20260901232540 70 0 0.0 0.0 0.01 0.18 0.18 75 1021.2
20260901232040 70 0 0.0 2.0 0.01 0.18 0.18 73 1021.2
20260901231558 69 0 0.0 3.0 0.01 0.18 0.18 74 1021.2
20260901231039 69 0 0.0 3.0 0.01 0.18 0.18 74 1021.2
20260901230540 69 267 0.0 3.0 0.01 0.18 0.18 75 1021.2
20260901230106 69 0 0.0 3.0 0.01 0.18 0.18 75 1021.2
20260901225540 70 0 0.0 3.0 0.01 0.18 0.18 72 1021.2
20260901225040 71 0 0.0 3.0 0.01 0.18 0.18 70 1021.2
20260901224553 72 0 0.0 3.0 0.01 0.18 0.18 65 1021.2
20260901224038 72 0 0.0 1.0 0.00 0.17 0.17 64 1021.2
20260901223539 72 0 0.0 0.0 0.00 0.17 0.17 64 1021.2
20260901223106 72 0 0.0 0.0 0.00 0.17 0.17 65 1021.2
20260901222539 72 0 0.0 0.0 0.00 0.17 0.17 67 1021.2
20260901222041 72 0 0.0 0.0 0.00 0.17 0.17 69 1021.2
20260901221557 72 0 0.0 0.0 0.00 0.17 0.17 70 1021.2
20260901221039 72 0 0.0 0.0 0.00 0.17 0.17 68 1021.2
20260901220540 72 0 0.0 0.0 0.00 0.17 0.17 68 1021.2
20260901220111 73 0 0.0 0.0 0.00 0.17 0.17 68 1021.2
20260901215539 73 0 0.0 0.0 0.00 0.17 0.17 68 1021.2
20260901215043 73 0 0.0 4.0 0.00 0.17 0.17 66 1021.2
20260901214556 74 0 0.0 4.0 0.00 0.17 0.17 64 1021.2
20260901214040 75 288 0.0 2.0 0.00 0.17 0.17 58 1021.2
20260901213539 77 0 0.0 0.0 0.00 0.17 0.17 58 1021.2
20260901213102 76 0 0.0 0.0 0.00 0.17 0.17 58 1021.2
20260901212539 76 0 0.0 0.0 0.00 0.17 0.17 61 1021.2
20260901212040 76 0 0.0 0.0 0.00 0.17 0.17 65 1021.2
20260901211554 77 0 0.0 0.0 0.00 0.17 0.17 64 1021.2
20260901211041 77 0 0.0 0.0 0.00 0.17 0.17 60 1021.2
20260901210539 76 0 0.0 0.0 0.00 0.17 0.17 58 1021.2
20260901210100 76 0 0.0 0.0 0.00 0.17 0.17 62 1021.2
20260901205539 76 0 0.0 0.0 0.00 0.17 0.17 58 1021.2
20260901205040 75 0 0.0 0.0 0.00 0.17 0.17 59 1021.2
20260901204554 75 0 0.0 0.0 0.00 0.17 0.17 58 1021.2
20260901204044 75 0 0.0 0.0 0.00 0.17 0.17 59 1021.2
20260901203540 74 0 0.0 0.0 0.00 0.17 0.17 61 1021.2
20260901203055 73 0 0.0 0.0 0.00 0.17 0.17 63 1021.2
20260901202538 72 0 0.0 0.0 0.00 0.17 0.17 66 1021.2
20260901202038 71 0 0.0 0.0 0.00 0.17 0.17 66 1021.2
20260901201603 71 0 0.0 0.0 0.00 0.17 0.17 67 1021.2
20260901201040 70 0 0.0 0.0 0.00 0.17 0.17 67 1021.2
20260901200541 69 0 0.0 0.0 0.00 0.17 0.17 71 1021.2
20260901200058 69 0 0.0 0.0 0.02 0.17 0.17 73 1021.2
20260901195539 68 0 0.0 0.0 0.06 0.17 0.17 73 1021.2
20260901195040 68 0 0.0 7.0 0.11 0.17 0.17 73 1021.2
20260901194556 68 0 0.0 7.0 0.13 0.17 0.17 74 1021.2
20260901194041 67 0 0.0 12.0 0.13 0.17 0.17 76 1021.2
20260901193539 67 0 2.0 12.0 0.17 0.17 0.17 77 1021.2
20260901193059 67 63 2.0 12.0 0.17 0.17 0.17 78 1021.2
20260901192540 66 23 3.0 6.0 0.17 0.17 0.17 79 1021.2
20260901192042 65 0 2.0 5.0 0.17 0.17 0.17 82 1021.2
20260901191611 65 0 1.0 7.0 0.17 0.17 0.17 84 1021.2
20260901191039 65 56 2.0 8.0 0.17 0.17 0.17 81 1021.2
20260901190543 65 38 2.0 8.0 0.17 0.17 0.17 83 1021.2
20260901190053 66 331 0.0 6.0 0.15 0.15 0.15 81 1021.2
20260901185538 67 0 2.0 6.0 0.10 0.10 0.10 79 1021.2
20260901185039 68 3 2.0 6.0 0.06 0.06 0.06 75 1021.2
20260901184611 70 1 1.0 9.0 0.04 0.04 0.04 70 1021.2
20260901184039 73 330 2.0 9.0 0.04 0.04 0.04 65 1021.2
20260901183539 76 9 0.0 11.0 0.00 0.00 0.00 57 1021.2
20260901183059 77 350 2.0 17.0 0.00 0.00 0.00 48 1021.2
20260901182539 77 89 4.0 17.0 0.00 0.00 0.00 46 1021.2
20260901182040 79 58 5.0 10.0 0.00 0.00 0.00 42 1021.2
20260901181600 81 66 0.0 8.0 0.00 0.00 0.00 41 1021.2
20260901181040 81 125 1.0 8.0 0.00 0.00 0.00 41 1021.2
20260901180539 82 0 0.0 3.0 0.00 0.00 0.00 40 1021.2
20260901175539 85 0 0.0 9.0 0.00 0.00 0.00 39 1021.2
20260901175040 85 23 1.0 9.0 0.00 0.00 0.00 40 1021.2
20260901174559 85 20 4.0 13.0 0.00 0.00 0.00 39 1021.2
20260901174040 84 268 1.0 13.0 0.00 0.00 0.00 41 1021.2
20260901173540 85 243 3.0 11.0 0.00 0.00 0.00 40 1021.2
20260901173104 84 277 3.0 12.0 0.00 0.00 0.00 39 1021.2
20260901172539 83 188 3.0 12.0 0.00 0.00 0.00 41 1021.2
20260901172039 83 223 1.0 8.0 0.00 0.00 0.00 42 1021.2
20260901171552 82 0 4.0 10.0 0.00 0.00 0.00 43 1021.2
20260901171041 84 68 3.0 10.0 0.00 0.00 0.00 41 1021.2
20260901170542 84 0 0.0 7.0 0.00 0.00 0.00 41 1021.2
20260901165540 83 208 1.0 7.0 0.00 0.00 0.00 43 1021.2
20260901165039 82 0 0.0 7.0 0.00 0.00 0.00 44 1021.2
20260901164606 82 106 0.0 7.0 0.00 0.00 0.00 44 1021.2
20260901164039 81 0 0.0 7.0 0.00 0.00 0.00 46 1021.2
20260901163539 81 125 3.0 6.0 0.00 0.00 0.00 45 1021.2
20260901163055 80 30 0.0 6.0 0.00 0.00 0.00 47 1021.2
20260901162541 79 0 2.0 7.0 0.00 0.00 0.00 48 1021.2
20260901162039 79 0 0.0 7.0 0.00 0.00 0.00 47 1021.2
20260901161615 79 0 1.0 7.0 0.00 0.00 0.00 47 1021.2
20260901161039 79 207 1.0 8.0 0.00 0.00 0.00 47 1021.2
20260901160538 79 261 1.0 9.0 0.00 0.00 0.00 48 1021.2
20260901160114 78 0 2.0 9.0 0.00 0.00 0.00 49 1021.2
20260901155540 79 240 1.0 14.0 0.00 0.00 0.00 48 1021.2
20260901155042 78 0 3.0 14.0 0.00 0.00 0.00 50 1021.2
20260901154559 78 49 1.0 9.0 0.00 0.00 0.00 49 1021.2
20260901154039 79 29 1.0 6.0 0.00 0.00 0.00 49 1021.2
20260901153539 78 0 0.0 0.0 0.00 0.00 0.00 49 1021.2
20260901153113 77 0 0.0 0.0 0.00 0.00 0.00 50 1021.2
20260901152539 77 0 0.0 0.0 0.00 0.00 0.00 50 1021.2
20260901152040 77 0 0.0 0.0 0.00 0.00 0.00 49 1021.2
20260901151602 77 0 0.0 7.0 0.00 0.00 0.00 50 1021.2
20260901151041 76 0 0.0 7.0 0.00 0.00 0.00 52 1021.2
20260901150540 76 154 4.0 7.0 0.00 0.00 0.00 53 1021.2
20260901150054 75 103 2.0 9.0 0.00 0.00 0.00 53 1021.2
20260901145539 75 110 1.0 9.0 0.00 0.00 0.00 54 1021.2
20260901145038 74 122 5.0 9.0 0.00 0.00 0.00 55 1021.2
20260901144557 74 134 4.0 8.0 0.00 0.00 0.00 54 1021.2
20260901144038 74 119 2.0 8.0 0.00 0.00 0.00 55 1021.2
20260901143540 73 0 4.0 7.0 0.00 0.00 0.00 56 1021.2
20260901143122 73 89 4.0 9.0 0.00 0.00 0.00 55 1021.2
20260901142540 73 102 4.0 12.0 0.00 0.00 0.00 56 1021.2
20260901142039 73 138 4.0 12.0 0.00 0.00 0.00 56 1021.2
20260901141553 72 117 6.0 12.0 0.00 0.00 0.00 57 1021.2
20260901141039 72 139 5.0 12.0 0.00 0.00 0.00 57 1021.2
20260901140539 72 127 5.0 10.0 0.00 0.00 0.00 57 1021.2
20260901140055 72 121 5.0 9.0 0.00 0.00 0.00 57 1021.2
20260901135539 72 103 4.0 9.0 0.00 0.00 0.00 58 1021.2
20260901135039 71 94 4.0 9.0 0.00 0.00 0.00 58 1021.2
20260901134600 71 0 4.0 9.0 0.00 0.00 0.00 60 1021.2
20260901134038 70 0 2.0 9.0 0.00 0.00 0.00 61 1021.2
20260901133538 69 54 2.0 9.0 0.00 0.00 0.00 62 1021.2
20260901133055 68 319 2.0 8.0 0.00 0.00 0.00 63 1021.2
20260901132539 68 0 3.0 8.0 0.00 0.00 0.00 63 1021.2
20260901132040 68 341 1.0 5.0 0.00 0.00 0.00 64 1021.2
20260901131555 68 0 2.0 8.0 0.00 0.00 0.00 64 1021.2
20260901131040 68 79 3.0 8.0 0.00 0.00 0.00 64 1021.2
20260901130539 68 127 4.0 8.0 0.00 0.00 0.00 63 1021.2
20260901125540 67 104 2.0 5.0 0.00 0.00 0.00 64 1021.2
20260901125039 67 129 1.0 7.0 0.00 0.00 0.00 65 1021.2
20260901124557 67 0 3.0 7.0 0.00 0.00 0.00 65 1021.2
20260901124041 67 0 1.0 5.0 0.00 0.00 0.00 65 1021.2
20260901123539 67 89 2.0 5.0 0.00 0.00 0.00 65 1021.2
20260901123113 66 0 0.0 0.0 0.00 0.00 0.00 64 1021.2
20260901122539 67 0 0.0 5.0 0.00 0.00 0.00 64 1021.2
20260901122039 68 0 0.0 9.0 0.00 0.00 0.00 63 1021.2
20260901121551 68 128 4.0 9.0 0.00 0.00 0.00 63 1021.2
20260901121039 66 108 0.0 1.0 0.00 0.00 0.00 66 1021.2
20260901120539 65 0 0.0 0.0 0.00 0.00 0.00 66 1021.2
20260901120104 66 0 0.0 0.0 0.00 0.00 0.00 64 1021.2
20260901115538 67 0 0.0 0.0 0.00 0.00 0.00 62 1021.2